DECAYED

FREGAT DEB, 45962 (Decayed)

Orbit data source: Space-Track

FREGAT DEB, 45962 was space debris in LEO originally from a launch on Mon, 18 Jul 2011 UTC launched from the Tyuratam Missile And Space Complex (TTMTR). Debris objects in space refer to the collection of defunct objects orbiting the Earth. Examples of debris include non-operational satellites, rocket bodies, and fragments generated from explosions, collisions, or faulty payload assembly.

Not visible in the next 10 days
Identifier
45962, 2011-037FT
Orbit
Decayed
Country
Flag of CISCIS
Related business
Manufacturer
Lavochkin
Mission
Decayed spacecraft
Bus & Motor
Unknown
Mass
Unknown
Launch date (UTC)
2011-07-18 (15 years ago)
Launch vehicle
Unknown
Launch site
Tyuratam Missile And Space Complex (TTMTR)
Object type
Payload
Rocket body
Debris
Shape & HBR
Unknown shape, 0.1 m
Radar Cross Section
Medium (>0.1 m² and <1 m²)

Expand to show TLE details & history
Last TLE update: 2 years ago

TLE from 2 years ago
0 FREGAT DEB
1 45962U 11037FT  25036.09756748  .07982140  11257-4  70442-2 0  9990
2 45962  51.2887  56.7370 0078626 130.3766 230.4140 16.05603064206735
Epoch: 2025-02-05T02:20Z
TLE epoch observation values (Epoch: 2025-02-05T02:20:29.830Z)
Latitude
-0.00003°
Longitude
-113.88071°
Altitude
293.147 km
Speed
7.714 km/s
True Right ascension
03h 46m 56s
True Declination
0° 00' 00"
Sunlit
Object was in daylight at epoch
Visualization orbit readout
Latitude
Unknown
Longitude
Unknown
Altitude
Unknown
Speed
Unknown
Apparent Right ascension
Unknown
Apparent Declination
Unknown
Sunlit
N/A
Visualization observer readout
Local Sidereal Time
05:09:24
Azimuth
Unknown
Elevation
Unknown
Doppler factor
Unknown
Orbital elements
Apogee altitude
311.701 km
Perigee altitude
207.323 km
Semi-major axis
6,637.649 km
Eccentricity
0.00786
Inclination
51.2887°
RAAN
56.737°
Arg. of periapsis
130.3766°
True anomaly
229.72398°
Mean anomaly
230.414°
Eccentric anomaly
230.06856°
Mean motion
4.01349 °/min
Orbital period
89.7 mins
BSTAR
0.0070442
Loading maneuver chart data...
Computing Atmospheric mass density...
Loading historical data...
Loading historical data...
Loading historical data...
Loading historical data...
Loading historical data...
Loading historical data...
Loading historical data...

Documentation

Showing up to 5 results
|